contact:dominique.lefevre@mio.osupytheas.fr, maurice.libes@osupytheas.fr, didier.mallarino@osupytheas.fr
Project:EMSO http://www.emso-fr.org/EMSO-France
Depth: 2436.0 m
Title:EMSO Ligure Ouest : Data MII capteur AQUADOPP
Date,Latitude,Longitude,X_East,Y_North,Z_Up,Amplitude_X,Amplitude_Y,Amplitude_Z,Batterie,SoundSpeed,Heading,Pitch,Roll,Pressure,TIS,Speed,Direction
, degrees North, degrees East, m.s-1, m.s-1,m.s-1, 1, 1, 1, Volt, m.s-1, degree, degree, degree, dbar, degree_C, m.s-1, degree
2021-07-13T00:04:03,42.805,6.029,-0.017,-0.022,-0.01,99.0,102.0,100.0,13.4,1505.2,326.8,-0.8,1.9,2470.643,13.29,0.027,217.7
2021-07-13T00:07:03,42.805,6.029,-0.034,0.009,-0.032,101.0,100.0,100.0,13.4,1505.2,326.1,-0.8,1.8,2470.637,13.29,0.035,284.8
2021-07-13T00:10:03,42.805,6.029,-0.021,0.0,0.029,100.0,101.0,100.0,13.4,1505.2,327.7,-0.8,1.8,2470.606,13.29,0.021,270.0
2021-07-13T00:13:03,42.805,6.029,-0.011,0.008,0.002,99.0,100.0,99.0,13.3,1505.2,329.2,-0.7,1.8,2470.615,13.29,0.013,306.0
2021-07-13T00:16:03,42.805,6.029,-0.011,0.008,0.0,99.0,102.0,99.0,13.4,1505.2,326.1,-0.8,1.9,2470.598,13.29,0.013,306.0
2021-07-13T00:19:03,42.805,6.029,0.01,-0.016,-0.025,98.0,103.0,101.0,13.4,1505.2,328.8,-0.7,1.8,2470.631,13.29,0.018,148.0
2021-07-13T00:22:03,42.805,6.029,-0.01,-0.044,-0.047,101.0,99.0,101.0,13.4,1505.2,326.4,-0.7,1.8,2470.617,13.29,0.045,192.8
2021-07-13T00:25:03,42.805,6.029,-0.041,-0.004,-0.028,101.0,101.0,99.0,13.4,1505.2,326.6,-0.8,1.8,2470.583,13.29,0.041,264.4
2021-07-13T00:28:03,42.805,6.029,-0.028,0.007,-0.023,98.0,100.0,100.0,13.3,1505.2,326.6,-0.8,1.8,2470.583,13.29,0.028,284.0
2021-07-13T00:31:03,42.805,6.029,-0.004,0.004,-0.007,99.0,101.0,101.0,13.4,1505.2,328.3,-0.7,1.8,2470.602,13.29,0.005,315.0
2021-07-13T00:34:03,42.805,6.029,-0.015,0.009,0.001,100.0,100.0,100.0,13.4,1505.2,330.3,-0.7,1.8,2470.576,13.29,0.017,301.0
2021-07-13T00:37:03,42.805,6.029,-0.001,-0.009,-0.017,100.0,99.0,100.0,13.4,1505.2,328.9,-0.7,1.8,2470.565,13.29,0.009,186.3
2021-07-13T00:40:03,42.805,6.029,-0.019,0.004,-0.017,110.0,99.0,100.0,13.4,1505.2,324.8,-0.7,1.8,2470.559,13.29,0.019,281.9
2021-07-13T00:43:03,42.805,6.029,-0.035,-0.006,-0.026,99.0,102.0,99.0,13.3,1505.2,326.4,-0.7,1.8,2470.571,13.29,0.035,260.3
2021-07-13T00:46:03,42.805,6.029,-0.022,-0.001,-0.014,100.0,102.0,100.0,13.4,1505.2,326.1,-0.7,1.8,2470.551,13.29,0.022,267.4
2021-07-13T00:49:03,42.805,6.029,-0.016,-0.001,-0.045,101.0,102.0,99.0,13.3,1505.2,325.4,-0.7,1.8,2470.563,13.29,0.016,266.4
2021-07-13T00:52:03,42.805,6.029,-0.027,-0.001,-0.028,101.0,101.0,101.0,13.4,1505.2,325.0,-0.8,1.8,2470.571,13.29,0.027,267.9
2021-07-13T00:55:03,42.805,6.029,-0.004,-0.018,-0.01,100.0,101.0,100.0,13.3,1505.2,328.6,-0.8,1.8,2470.56,13.29,0.018,192.5
2021-07-13T00:58:03,42.805,6.029,-0.009,-0.012,0.0,101.0,102.0,98.0,13.3,1505.2,328.6,-0.8,1.8,2470.563,13.29,0.015,216.9
2021-07-13T01:04:03,42.805,6.029,-0.028,-0.004,-0.023,100.0,102.0,100.0,13.4,1505.2,326.4,-0.7,1.8,2470.584,13.29,0.028,261.9
2021-07-13T01:07:03,42.805,6.029,-0.003,0.008,-0.006,102.0,101.0,100.0,13.4,1505.2,328.6,-0.8,1.8,2470.561,13.29,0.008,339.4
2021-07-13T01:10:03,42.805,6.029,-0.015,0.004,-0.013,101.0,101.0,99.0,13.4,1505.2,326.9,-0.7,1.8,2470.554,13.29,0.015,284.9
2021-07-13T01:13:03,42.805,6.029,-0.016,0.009,-0.01,101.0,100.0,101.0,13.4,1505.2,326.4,-0.8,1.8,2470.553,13.29,0.018,299.4
2021-07-13T01:16:03,42.805,6.029,-0.005,-0.004,-0.034,101.0,102.0,100.0,13.4,1505.2,326.7,-0.8,1.8,2470.536,13.29,0.006,231.3
2021-07-13T01:19:03,42.805,6.029,0.001,-0.016,-0.016,99.0,102.0,99.0,13.3,1505.2,329.9,-0.7,1.8,2470.571,13.29,0.016,176.4
2021-07-13T01:22:03,42.805,6.029,-0.004,0.009,0.006,101.0,102.0,100.0,13.4,1505.2,329.4,-0.8,1.8,2470.553,13.29,0.009,336.0
2021-07-13T01:25:03,42.805,6.029,-0.03,0.014,-0.003,101.0,101.0,103.0,13.4,1505.2,329.3,-0.8,1.9,2470.538,13.29,0.033,295.0
2021-07-13T01:28:03,42.805,6.029,-0.008,-0.001,-0.004,101.0,103.0,101.0,13.4,1505.2,328.6,-0.7,1.8,2470.545,13.29,0.008,262.9
2021-07-13T01:31:03,42.805,6.029,0.012,-0.002,-0.019,101.0,101.0,99.0,13.4,1505.2,325.1,-0.8,1.8,2470.563,13.29,0.012,99.5
2021-07-13T01:34:03,42.805,6.029,-0.003,-0.02,0.018,100.0,103.0,97.0,13.4,1505.2,329.8,-0.7,1.8,2470.516,13.29,0.02,188.5
2021-07-13T01:37:03,42.805,6.029,-0.034,0.003,0.014,103.0,100.0,99.0,13.4,1505.2,328.3,-0.7,1.8,2470.512,13.29,0.034,275.0
2021-07-13T01:40:03,42.805,6.029,-0.022,-0.008,-0.008,100.0,102.0,99.0,13.3,1505.2,327.8,-0.7,1.8,2470.492,13.29,0.023,250.0
2021-07-13T01:43:03,42.805,6.029,-0.006,-0.004,0.005,100.0,104.0,99.0,13.3,1505.2,328.8,-0.7,1.8,2470.52,13.29,0.007,236.3
2021-07-13T01:46:03,42.805,6.029,0.013,-0.023,-0.032,101.0,99.0,101.0,13.4,1505.2,326.5,-0.8,1.9,2470.5,13.29,0.026,150.5
2021-07-13T01:49:03,42.805,6.029,0.0,-0.008,-0.008,101.0,102.0,100.0,13.4,1505.2,327.9,-0.7,1.8,2470.503,13.29,0.008,180.0
2021-07-13T01:52:03,42.805,6.029,-0.009,-0.003,-0.036,102.0,100.0,100.0,13.4,1505.2,326.4,-0.7,1.8,2470.524,13.29,0.009,251.6
2021-07-13T01:55:03,42.805,6.029,0.0,-0.003,-0.003,102.0,99.0,99.0,13.4,1505.2,329.5,-0.7,1.8,2470.507,13.29,0.003,180.0
2021-07-13T01:58:03,42.805,6.029,-0.007,-0.002,0.004,102.0,103.0,100.0,13.4,1505.2,326.3,-0.7,1.8,2470.521,13.29,0.007,254.1
2021-07-13T02:04:03,42.805,6.029,-0.02,-0.004,-0.017,101.0,102.0,100.0,13.4,1505.2,327.3,-0.7,1.8,2470.581,13.29,0.02,258.7
2021-07-13T02:07:03,42.805,6.029,-0.026,0.021,-0.007,101.0,104.0,104.0,13.4,1505.2,328.4,-0.7,1.8,2470.554,13.29,0.033,308.9
2021-07-13T02:10:03,42.805,6.029,-0.02,-0.013,-0.017,100.0,101.0,100.0,13.3,1505.2,328.7,-0.7,1.9,2470.516,13.29,0.023,237.0
2021-07-13T02:13:03,42.805,6.029,-0.024,0.004,-0.02,100.0,100.0,102.0,13.4,1505.2,327.5,-0.7,1.8,2470.518,13.29,0.024,279.5
2021-07-13T02:16:03,42.805,6.029,-0.005,-0.003,-0.008,98.0,101.0,101.0,13.4,1505.2,327.6,-0.7,1.8,2470.528,13.29,0.005,239.0
2021-07-13T02:19:03,42.805,6.029,-0.037,0.008,-0.012,99.0,103.0,100.0,13.4,1505.2,327.1,-0.7,1.8,2470.51,13.29,0.037,282.2
2021-07-13T02:22:03,42.805,6.029,-0.058,0.008,-0.007,99.0,101.0,100.0,13.4,1505.2,326.9,-0.8,1.8,2470.485,13.29,0.058,277.8
2021-07-13T02:25:03,42.805,6.029,-0.002,-0.004,-0.012,102.0,102.0,100.0,13.4,1505.2,326.6,-0.7,1.8,2470.489,13.29,0.004,206.6
2021-07-13T02:28:03,42.805,6.029,-0.012,-0.019,-0.008,100.0,101.0,100.0,13.4,1505.2,325.7,-0.8,1.8,2470.513,13.29,0.022,212.3
2021-07-13T02:31:03,42.805,6.029,-0.026,-0.006,-0.025,100.0,100.0,100.0,13.4,1505.2,327.8,-0.8,1.8,2470.505,13.29,0.026,257.0
2021-07-13T02:34:03,42.805,6.029,-0.032,-0.002,-0.005,102.0,102.0,101.0,13.3,1505.2,329.6,-0.8,1.8,2470.515,13.29,0.032,266.4
2021-07-13T02:37:03,42.805,6.029,-0.028,0.013,0.0,101.0,101.0,98.0,13.4,1505.2,325.3,-0.7,1.8,2470.472,13.29,0.03,294.9
2021-07-13T02:40:03,42.805,6.029,-0.006,0.005,-0.025,99.0,102.0,100.0,13.3,1505.2,326.3,-0.7,1.8,2470.521,13.29,0.007,309.8
2021-07-13T02:43:03,42.805,6.029,-0.019,0.026,0.02,100.0,101.0,99.0,13.3,1505.2,326.4,-0.7,1.8,2470.54,13.29,0.032,323.8
2021-07-13T02:46:03,42.805,6.029,-0.054,-0.005,-0.052,99.0,100.0,100.0,13.4,1505.2,328.6,-0.7,1.8,2470.503,13.29,0.054,264.7
2021-07-13T02:49:03,42.805,6.029,-0.014,-0.015,-0.024,99.0,101.0,100.0,13.4,1505.2,329.5,-0.8,1.8,2470.457,13.29,0.02,223.0
2021-07-13T02:52:03,42.805,6.029,-0.006,-0.009,0.023,100.0,100.0,102.0,13.4,1505.2,330.0,-0.7,1.8,2470.483,13.29,0.01,213.7
2021-07-13T02:55:03,42.805,6.029,-0.024,-0.01,-0.028,100.0,101.0,100.0,13.4,1505.2,327.6,-0.8,1.8,2470.508,13.29,0.026,247.4
2021-07-13T02:58:03,42.805,6.029,-0.021,0.005,-0.008,100.0,100.0,100.0,13.3,1505.2,330.2,-0.7,1.8,2470.469,13.29,0.021,283.4
2021-07-13T03:04:03,42.805,6.029,0.001,-0.03,-0.038,100.0,100.0,99.0,13.4,1505.2,328.0,-0.8,1.8,2470.507,13.29,0.03,178.1
2021-07-13T03:07:03,42.805,6.029,-0.02,-0.005,-0.022,99.0,100.0,100.0,13.3,1505.2,329.3,-0.8,1.9,2470.484,13.29,0.02,256.0
2021-07-13T03:10:03,42.805,6.029,-0.017,-0.001,0.012,100.0,99.0,99.0,13.3,1505.2,327.0,-0.8,1.8,2470.484,13.29,0.017,266.6
2021-07-13T03:13:03,42.805,6.029,0.002,-0.01,0.001,100.0,102.0,99.0,13.4,1505.2,328.8,-0.7,1.8,2470.464,13.29,0.01,168.7
2021-07-13T03:16:03,42.805,6.029,-0.01,-0.009,-0.009,100.0,100.0,100.0,13.3,1505.2,326.8,-0.7,1.8,2470.489,13.29,0.013,228.0
2021-07-13T03:19:03,42.805,6.029,0.0,-0.008,-0.028,100.0,99.0,101.0,13.4,1505.2,327.1,-0.7,1.8,2470.507,13.29,0.008,180.0
2021-07-13T03:22:03,42.805,6.029,-0.015,-0.003,-0.004,104.0,100.0,99.0,13.3,1505.2,325.5,-0.7,1.8,2470.512,13.29,0.015,258.7
2021-07-13T03:25:03,42.805,6.029,-0.028,-0.006,-0.007,102.0,100.0,100.0,13.3,1505.2,327.4,-0.7,1.8,2470.487,13.29,0.028,257.9
2021-07-13T03:28:03,42.805,6.029,-0.012,-0.022,-0.031,100.0,100.0,99.0,13.3,1505.2,329.6,-0.8,1.8,2470.458,13.29,0.025,208.6
2021-07-13T03:31:03,42.805,6.029,-0.005,0.013,-0.01,104.0,101.0,99.0,13.4,1505.2,328.9,-0.7,1.8,2470.46,13.29,0.013,339.0
2021-07-13T03:34:03,42.805,6.029,-0.035,-0.007,-0.012,98.0,101.0,102.0,13.4,1505.2,326.7,-0.8,1.8,2470.467,13.29,0.035,258.7
2021-07-13T03:37:03,42.805,6.029,-0.04,0.0,-0.048,102.0,99.0,99.0,13.4,1505.2,330.4,-0.8,1.8,2470.442,13.3,0.04,270.0
2021-07-13T03:40:03,42.805,6.029,-0.014,0.011,-0.003,101.0,100.0,99.0,13.3,1505.2,326.4,-0.8,1.9,2470.476,13.3,0.017,308.2
2021-07-13T03:43:03,42.805,6.029,-0.012,-0.009,0.003,101.0,99.0,98.0,13.4,1505.2,326.3,-0.7,1.8,2470.443,13.3,0.015,233.1
2021-07-13T03:46:03,42.805,6.029,0.01,-0.002,0.0,101.0,101.0,98.0,13.4,1505.2,328.1,-0.7,1.8,2470.467,13.3,0.01,101.3
2021-07-13T03:49:03,42.805,6.029,-0.012,0.0,0.01,100.0,100.0,100.0,13.4,1505.2,327.7,-0.7,1.9,2470.481,13.3,0.012,270.0
2021-07-13T03:52:03,42.805,6.029,0.005,-0.005,-0.013,99.0,101.0,99.0,13.4,1505.2,328.5,-0.7,1.8,2470.469,13.3,0.007,135.0
2021-07-13T03:55:03,42.805,6.029,-0.016,0.001,-0.013,100.0,102.0,99.0,13.4,1505.2,329.6,-0.8,1.8,2470.469,13.3,0.016,273.6
2021-07-13T03:58:03,42.805,6.029,-0.025,0.015,-0.034,101.0,100.0,99.0,13.4,1505.2,325.8,-0.8,1.8,2470.449,13.3,0.029,301.0
2021-07-13T04:04:03,42.805,6.029,-0.029,-0.005,-0.032,99.0,99.0,99.0,13.4,1505.2,327.4,-0.7,1.8,2470.504,13.29,0.029,260.2
2021-07-13T04:07:03,42.805,6.029,-0.008,-0.008,-0.019,103.0,98.0,99.0,13.4,1505.2,330.2,-0.8,1.8,2470.441,13.29,0.011,225.0
2021-07-13T04:10:03,42.805,6.029,0.003,0.011,0.02,101.0,99.0,99.0,13.4,1505.2,330.0,-0.8,1.8,2470.465,13.29,0.011,15.3
2021-07-13T04:13:03,42.805,6.029,-0.002,-0.004,0.024,103.0,102.0,98.0,13.4,1505.2,328.5,-0.7,1.8,2470.471,13.29,0.004,206.6
2021-07-13T04:16:03,42.805,6.029,-0.014,-0.008,0.001,100.0,99.0,101.0,13.3,1505.2,324.5,-0.8,1.8,2470.461,13.29,0.016,240.3
2021-07-13T04:19:03,42.805,6.029,-0.005,-0.001,0.004,99.0,103.0,101.0,13.4,1505.2,329.5,-0.8,1.8,2470.475,13.29,0.005,258.7
2021-07-13T04:22:03,42.805,6.029,-0.007,-0.013,-0.001,99.0,101.0,99.0,13.4,1505.2,328.9,-0.7,1.8,2470.492,13.29,0.014,208.3
2021-07-13T04:25:03,42.805,6.029,-0.014,-0.013,-0.016,100.0,103.0,99.0,13.4,1505.2,325.4,-0.7,1.8,2470.428,13.29,0.019,227.1
2021-07-13T04:28:03,42.805,6.029,-0.004,0.003,0.005,99.0,102.0,99.0,13.4,1505.2,328.9,-0.7,1.8,2470.466,13.29,0.005,306.9
2021-07-13T04:31:03,42.805,6.029,-0.021,-0.003,-0.017,100.0,100.0,101.0,13.4,1505.2,327.9,-0.7,1.8,2470.469,13.29,0.021,261.9
2021-07-13T04:34:03,42.805,6.029,-0.02,0.003,-0.025,100.0,102.0,99.0,13.4,1505.2,327.1,-0.8,1.8,2470.474,13.29,0.02,278.5
2021-07-13T04:37:03,42.805,6.029,-0.018,-0.024,-0.015,100.0,102.0,99.0,13.4,1505.2,328.2,-0.7,1.8,2470.46,13.29,0.03,216.9
2021-07-13T04:40:03,42.805,6.029,-0.001,-0.007,-0.005,100.0,100.0,100.0,13.3,1505.2,329.1,-0.7,1.8,2470.46,13.29,0.007,188.1
2021-07-13T04:43:03,42.805,6.029,0.014,-0.007,-0.028,100.0,100.0,99.0,13.4,1505.2,330.3,-0.8,1.8,2470.452,13.29,0.015,116.6
2021-07-13T04:46:03,42.805,6.029,-0.014,-0.014,-0.017,100.0,100.0,100.0,13.4,1505.2,328.9,-0.7,1.9,2470.462,13.29,0.019,225.0
2021-07-13T04:49:03,42.805,6.029,-0.018,0.008,0.022,101.0,100.0,99.0,13.3,1505.2,324.8,-0.7,1.8,2470.439,13.29,0.019,294.0
2021-07-13T04:52:03,42.805,6.029,-0.018,-0.026,-0.014,101.0,100.0,99.0,13.4,1505.2,327.6,-0.8,1.8,2470.482,13.29,0.031,214.7
2021-07-13T04:55:03,42.805,6.029,-0.006,-0.007,-0.025,101.0,101.0,98.0,13.4,1505.2,328.1,-0.7,1.8,2470.458,13.29,0.009,220.6
2021-07-13T04:58:03,42.805,6.029,-0.02,0.024,-0.018,100.0,102.0,99.0,13.4,1505.2,327.1,-0.8,1.8,2470.475,13.29,0.031,320.2
2021-07-13T05:04:03,42.805,6.029,-0.009,-0.004,-0.004,100.0,102.0,99.0,13.3,1505.2,326.4,-0.8,1.8,2470.469,13.29,0.009,246.0
2021-07-13T05:07:03,42.805,6.029,-0.005,-0.003,-0.011,100.0,101.0,101.0,13.3,1505.2,327.9,-0.8,1.8,2470.484,13.29,0.005,239.0
2021-07-13T05:10:03,42.805,6.029,0.007,-0.002,0.001,99.0,103.0,100.0,13.4,1505.2,326.9,-0.8,1.9,2470.505,13.29,0.007,105.9
2021-07-13T05:13:03,42.805,6.029,0.003,-0.017,-0.02,101.0,102.0,100.0,13.3,1505.2,325.6,-0.7,1.8,2470.502,13.29,0.017,170.0
2021-07-13T05:16:03,42.805,6.029,-0.023,-0.016,-0.019,101.0,102.0,99.0,13.4,1505.2,329.9,-0.8,1.8,2470.527,13.29,0.028,235.2
2021-07-13T05:19:03,42.805,6.029,-0.022,0.006,-0.018,101.0,101.0,98.0,13.3,1505.2,328.1,-0.7,1.8,2470.491,13.29,0.022,285.3
2021-07-13T05:22:03,42.805,6.029,-0.01,-0.013,-0.03,100.0,103.0,100.0,13.4,1505.2,325.1,-0.7,1.8,2470.478,13.29,0.016,217.6
2021-07-13T05:25:03,42.805,6.029,-0.011,0.014,-0.008,100.0,101.0,101.0,13.4,1505.2,326.9,-0.7,1.8,2470.469,13.29,0.017,321.8
2021-07-13T05:28:03,42.805,6.029,-0.016,-0.018,-0.038,99.0,100.0,101.0,13.3,1505.2,327.7,-0.7,1.8,2470.451,13.29,0.024,221.6
2021-07-13T05:31:03,42.805,6.029,-0.014,-0.015,-0.038,103.0,101.0,99.0,13.4,1505.2,329.1,-0.7,1.8,2470.498,13.29,0.02,223.0
2021-07-13T05:34:03,42.805,6.029,-0.02,0.003,-0.015,101.0,101.0,100.0,13.4,1505.2,327.3,-0.8,1.8,2470.494,13.29,0.02,278.5
2021-07-13T05:37:03,42.805,6.029,-0.027,-0.011,-0.021,100.0,100.0,100.0,13.4,1505.2,326.3,-0.8,1.8,2470.482,13.29,0.029,247.8
2021-07-13T05:40:03,42.805,6.029,0.002,-0.002,0.003,100.0,103.0,101.0,13.4,1505.2,326.7,-0.7,1.9,2470.507,13.29,0.002,135.0
2021-07-13T05:43:03,42.805,6.029,-0.024,0.005,0.004,100.0,101.0,100.0,13.4,1505.2,326.7,-0.8,1.8,2470.492,13.29,0.024,281.8
2021-07-13T05:46:03,42.805,6.029,0.0,-0.013,-0.038,100.0,102.0,99.0,13.4,1505.2,326.4,-0.8,1.8,2470.474,13.29,0.013,180.0
2021-07-13T05:49:03,42.805,6.029,-0.029,-0.004,-0.01,100.0,101.0,99.0,13.4,1505.2,329.8,-0.8,1.8,2470.453,13.29,0.029,262.2
2021-07-13T05:52:03,42.805,6.029,-0.013,-0.011,-0.037,99.0,102.0,100.0,13.4,1505.2,326.8,-0.8,1.8,2470.519,13.29,0.017,229.8
2021-07-13T05:55:03,42.805,6.029,-0.001,-0.014,0.001,107.0,105.0,100.0,13.3,1505.2,325.9,-0.8,1.8,2470.479,13.29,0.014,184.1
2021-07-13T05:58:03,42.805,6.029,-0.008,-0.011,-0.019,101.0,101.0,99.0,13.4,1505.2,329.6,-0.7,1.8,2470.503,13.29,0.013,216.0
2021-07-13T06:04:03,42.805,6.029,-0.011,-0.015,-0.009,101.0,102.0,100.0,13.4,1505.2,328.1,-0.8,1.9,2470.492,13.29,0.018,216.3
2021-07-13T06:07:03,42.805,6.029,-0.019,0.006,-0.024,100.0,100.0,100.0,13.4,1505.2,326.2,-0.8,1.8,2470.553,13.29,0.019,287.5
2021-07-13T06:10:03,42.805,6.029,-0.013,0.0,-0.022,100.0,103.0,99.0,13.4,1505.2,329.4,-0.7,1.8,2470.554,13.29,0.013,270.0
2021-07-13T06:13:03,42.805,6.029,-0.032,-0.007,-0.034,101.0,101.0,99.0,13.3,1505.2,330.5,-0.8,1.8,2470.522,13.29,0.032,257.7
2021-07-13T06:16:03,42.805,6.029,-0.009,-0.015,-0.013,101.0,103.0,99.0,13.4,1505.2,330.1,-0.8,1.8,2470.531,13.29,0.017,211.0
2021-07-13T06:19:03,42.805,6.029,0.0,-0.008,-0.024,101.0,100.0,99.0,13.4,1505.2,326.7,-0.7,1.8,2470.508,13.29,0.008,180.0
2021-07-13T06:22:03,42.805,6.029,-0.012,0.0,-0.019,100.0,100.0,99.0,13.3,1505.2,326.1,-0.7,1.8,2470.538,13.29,0.012,270.0
2021-07-13T06:25:03,42.805,6.029,-0.01,-0.028,-0.046,101.0,101.0,100.0,13.4,1505.2,324.7,-0.8,1.8,2470.544,13.29,0.029,199.6
2021-07-13T06:28:03,42.805,6.029,-0.027,-0.01,-0.012,100.0,100.0,100.0,13.4,1505.2,327.9,-0.7,1.8,2470.529,13.29,0.028,249.7
2021-07-13T06:31:03,42.805,6.029,-0.02,0.007,-0.021,99.0,102.0,100.0,13.4,1505.2,330.0,-0.8,1.8,2470.511,13.29,0.021,289.3
2021-07-13T06:34:03,42.805,6.029,-0.027,-0.005,-0.002,100.0,100.0,101.0,13.4,1505.2,326.4,-0.7,1.8,2470.554,13.29,0.027,259.5
2021-07-13T06:37:03,42.805,6.029,-0.018,0.022,0.034,98.0,101.0,101.0,13.3,1505.2,326.3,-0.7,1.8,2470.53,13.29,0.028,320.7
2021-07-13T06:40:03,42.805,6.029,-0.008,0.003,0.002,101.0,102.0,100.0,13.3,1505.2,329.8,-0.8,1.8,2470.504,13.29,0.008,290.6
2021-07-13T06:43:03,42.805,6.029,0.002,0.015,-0.007,99.0,103.0,100.0,13.4,1505.2,329.9,-0.7,1.8,2470.536,13.29,0.015,7.6
2021-07-13T06:46:03,42.805,6.029,-0.005,0.001,-0.005,100.0,101.0,99.0,13.3,1505.2,329.8,-0.7,1.8,2470.502,13.29,0.005,281.3
2021-07-13T06:49:03,42.805,6.029,0.005,-0.001,0.008,101.0,99.0,101.0,13.4,1505.2,330.2,-0.8,1.8,2470.517,13.29,0.005,101.3
2021-07-13T06:52:03,42.805,6.029,0.001,-0.015,-0.033,100.0,103.0,99.0,13.3,1505.2,328.0,-0.8,1.8,2470.529,13.29,0.015,176.2
2021-07-13T06:55:03,42.805,6.029,-0.01,-0.004,-0.038,100.0,100.0,101.0,13.4,1505.2,325.4,-0.7,1.8,2470.497,13.29,0.01,248.2
2021-07-13T06:58:03,42.805,6.029,-0.022,0.013,0.004,100.0,99.0,101.0,13.3,1505.2,329.3,-0.7,1.8,2470.504,13.29,0.025,300.6
2021-07-13T07:04:03,42.805,6.029,-0.034,-0.022,0.0,101.0,99.0,100.0,13.4,1505.2,324.4,-0.8,1.8,2470.541,13.29,0.04,237.1
2021-07-13T07:07:03,42.805,6.029,-0.001,-0.001,-0.007,100.0,101.0,100.0,13.4,1505.2,329.9,-0.8,1.8,2470.55,13.29,0.001,225.0
2021-07-13T07:10:03,42.805,6.029,-0.027,-0.003,-0.015,100.0,101.0,100.0,13.4,1505.2,328.0,-0.7,1.8,2470.6,13.29,0.027,263.7
2021-07-13T07:13:03,42.805,6.029,-0.018,-0.029,-0.046,101.0,98.0,103.0,13.4,1505.2,328.4,-0.8,1.8,2470.513,13.29,0.034,211.8
2021-07-13T07:16:03,42.805,6.029,-0.04,0.0,-0.02,101.0,100.0,101.0,13.4,1505.2,326.9,-0.7,1.8,2470.508,13.29,0.04,270.0
2021-07-13T07:19:03,42.805,6.029,-0.013,0.0,-0.009,101.0,101.0,99.0,13.4,1505.2,328.5,-0.8,1.8,2470.564,13.29,0.013,270.0
2021-07-13T07:22:03,42.805,6.029,-0.003,0.0,-0.013,101.0,100.0,100.0,13.4,1505.2,325.5,-0.7,1.8,2470.569,13.29,0.003,270.0
2021-07-13T07:25:03,42.805,6.029,-0.017,-0.009,-0.052,100.0,101.0,100.0,13.4,1505.2,325.4,-0.8,1.8,2470.536,13.29,0.019,242.1
2021-07-13T07:28:03,42.805,6.029,-0.01,0.003,0.001,99.0,102.0,100.0,13.4,1505.2,328.2,-0.7,1.8,2470.568,13.29,0.01,286.7
2021-07-13T07:31:03,42.805,6.029,0.001,-0.022,-0.035,102.0,101.0,99.0,13.4,1505.2,327.4,-0.8,1.9,2470.56,13.29,0.022,177.4
2021-07-13T07:34:03,42.805,6.029,0.002,-0.039,-0.059,102.0,100.0,99.0,13.4,1505.2,326.5,-0.8,1.8,2470.547,13.29,0.039,177.1
2021-07-13T07:37:03,42.805,6.029,-0.03,-0.001,-0.004,101.0,104.0,99.0,13.4,1505.2,329.9,-0.7,1.8,2470.558,13.29,0.03,268.1
2021-07-13T07:40:03,42.805,6.029,0.004,-0.015,-0.025,102.0,100.0,100.0,13.4,1505.2,330.1,-0.8,1.8,2470.482,13.29,0.015,165.1
2021-07-13T07:43:03,42.805,6.029,-0.002,-0.015,-0.037,100.0,100.0,101.0,13.3,1505.2,329.7,-0.7,1.8,2470.574,13.29,0.015,187.6
2021-07-13T07:46:03,42.805,6.029,0.002,-0.043,-0.043,102.0,100.0,99.0,13.3,1505.2,327.4,-0.7,1.8,2470.499,13.29,0.043,177.3
2021-07-13T07:49:03,42.805,6.029,-0.021,-0.023,-0.036,101.0,100.0,99.0,13.4,1505.2,328.9,-0.7,1.8,2470.544,13.29,0.031,222.4
2021-07-13T07:52:03,42.805,6.029,-0.007,0.007,-0.004,101.0,101.0,99.0,13.3,1505.2,326.5,-0.8,1.8,2470.586,13.29,0.009,315.0
2021-07-13T07:55:03,42.805,6.029,-0.024,-0.011,-0.048,100.0,102.0,100.0,13.4,1505.2,328.1,-0.7,1.8,2470.588,13.29,0.026,245.4
2021-07-13T07:58:03,42.805,6.029,-0.054,-0.023,-0.059,101.0,101.0,99.0,13.4,1505.2,328.5,-0.7,1.8,2470.547,13.29,0.058,246.9
2021-07-13T08:04:03,42.805,6.029,-0.015,-0.005,-0.021,101.0,101.0,99.0,13.3,1505.2,329.5,-0.7,1.8,2470.555,13.28,0.015,251.6
2021-07-13T08:07:03,42.805,6.029,-0.013,-0.002,-0.006,102.0,101.0,100.0,13.4,1505.2,325.4,-0.8,1.8,2470.557,13.28,0.013,261.3
2021-07-13T08:10:03,42.805,6.029,-0.038,-0.008,-0.042,101.0,100.0,99.0,13.4,1505.2,325.1,-0.7,1.9,2470.593,13.29,0.038,258.1
2021-07-13T08:13:03,42.805,6.029,0.0,-0.002,0.012,101.0,101.0,99.0,13.4,1505.2,326.4,-0.7,1.9,2470.586,13.29,0.002,180.0
2021-07-13T08:16:03,42.805,6.029,-0.043,-0.002,-0.032,102.0,100.0,100.0,13.3,1505.2,325.8,-0.8,1.8,2470.548,13.29,0.043,267.3
2021-07-13T08:19:03,42.805,6.029,-0.032,0.001,-0.004,101.0,102.0,99.0,13.4,1505.2,329.6,-0.7,1.8,2470.563,13.29,0.032,271.8
2021-07-13T08:22:03,42.805,6.029,-0.014,0.006,-0.004,101.0,101.0,102.0,13.4,1505.2,327.3,-0.7,1.8,2470.587,13.29,0.015,293.2
2021-07-13T08:25:03,42.805,6.029,-0.015,-0.004,-0.009,100.0,101.0,100.0,13.3,1505.2,325.9,-0.8,1.8,2470.526,13.29,0.015,255.1
2021-07-13T08:28:03,42.805,6.029,-0.013,-0.032,-0.035,100.0,101.0,100.0,13.4,1505.2,330.7,-0.7,1.9,2470.599,13.29,0.034,202.1
2021-07-13T08:31:03,42.805,6.029,-0.025,0.009,-0.016,102.0,100.0,100.0,13.3,1505.2,328.3,-0.8,1.8,2470.561,13.29,0.026,289.8
2021-07-13T08:34:03,42.805,6.029,-0.019,0.006,0.0,102.0,101.0,99.0,13.4,1505.2,325.6,-0.7,1.8,2470.594,13.29,0.019,287.5
2021-07-13T08:37:03,42.805,6.029,-0.031,-0.005,-0.022,101.0,103.0,99.0,13.4,1505.2,329.8,-0.7,1.9,2470.579,13.29,0.031,260.8
2021-07-13T08:40:03,42.805,6.029,-0.021,-0.006,-0.005,99.0,102.0,100.0,13.4,1505.2,328.8,-0.7,1.8,2470.591,13.29,0.021,254.1
2021-07-13T08:43:03,42.805,6.029,-0.044,0.0,-0.04,100.0,100.0,99.0,13.4,1505.2,330.4,-0.7,1.8,2470.565,13.29,0.044,270.0
2021-07-13T08:46:03,42.805,6.029,-0.03,0.004,-0.011,101.0,100.0,99.0,13.3,1505.2,326.6,-0.7,1.8,2470.571,13.29,0.03,277.6
2021-07-13T08:49:03,42.805,6.029,-0.015,0.002,-0.019,101.0,101.0,100.0,13.4,1505.2,330.3,-0.8,1.9,2470.556,13.29,0.015,277.6
2021-07-13T08:52:03,42.805,6.029,-0.045,0.014,-0.014,99.0,102.0,100.0,13.3,1505.2,325.1,-0.8,1.9,2470.573,13.29,0.047,287.3
2021-07-13T08:55:03,42.805,6.029,-0.007,-0.025,-0.012,101.0,102.0,100.0,13.3,1505.2,327.0,-0.7,1.8,2470.54,13.29,0.025,195.6
2021-07-13T08:58:03,42.805,6.029,-0.016,0.006,0.001,101.0,102.0,100.0,13.4,1505.2,327.6,-0.8,1.8,2470.557,13.29,0.017,290.6
2021-07-13T09:04:03,42.805,6.029,-0.037,0.005,-0.021,101.0,101.0,101.0,13.4,1505.2,330.4,-0.8,1.8,2470.619,13.28,0.037,277.7
2021-07-13T09:07:03,42.805,6.029,-0.017,-0.021,-0.047,100.0,101.0,99.0,13.3,1505.2,328.7,-0.8,1.8,2470.562,13.28,0.027,219.0
2021-07-13T09:10:03,42.805,6.029,-0.022,-0.009,-0.013,100.0,102.0,102.0,13.4,1505.2,329.1,-0.7,1.8,2470.579,13.28,0.023,247.8
2021-07-13T09:13:03,42.805,6.029,-0.041,-0.008,-0.031,101.0,101.0,101.0,13.4,1505.2,328.6,-0.7,1.8,2470.589,13.28,0.041,259.0
2021-07-13T09:16:03,42.805,6.029,-0.026,0.01,-0.003,101.0,102.0,99.0,13.3,1505.2,330.1,-0.8,1.8,2470.572,13.29,0.027,291.0
2021-07-13T09:19:03,42.805,6.029,-0.026,-0.001,-0.036,100.0,102.0,100.0,13.4,1505.2,325.9,-0.8,1.8,2470.595,13.29,0.026,267.8
2021-07-13T09:22:03,42.805,6.029,-0.042,-0.008,-0.012,101.0,102.0,100.0,13.4,1505.2,326.0,-0.8,1.8,2470.596,13.29,0.042,259.2
2021-07-13T09:25:03,42.805,6.029,-0.021,-0.01,0.002,101.0,103.0,99.0,13.4,1505.2,327.2,-0.8,1.8,2470.591,13.29,0.023,244.5
2021-07-13T09:28:03,42.805,6.029,-0.02,-0.004,-0.021,101.0,101.0,101.0,13.4,1505.2,326.7,-0.8,1.9,2470.549,13.29,0.02,258.7
2021-07-13T09:31:03,42.805,6.029,0.009,-0.016,-0.019,99.0,102.0,101.0,13.4,1505.2,326.7,-0.8,1.8,2470.555,13.29,0.018,150.6
2021-07-13T09:34:03,42.805,6.029,-0.036,-0.006,-0.025,101.0,101.0,100.0,13.4,1505.2,328.4,-0.8,1.8,2470.56,13.29,0.036,260.5
2021-07-13T09:37:03,42.805,6.029,-0.06,0.011,-0.037,100.0,101.0,100.0,13.4,1505.2,328.2,-0.8,1.8,2470.501,13.29,0.06,280.4
2021-07-13T09:40:03,42.805,6.029,-0.038,-0.014,-0.026,101.0,100.0,102.0,13.3,1505.2,326.1,-0.7,1.8,2470.547,13.29,0.04,249.8
2021-07-13T09:43:03,42.805,6.029,-0.02,-0.011,-0.035,100.0,100.0,100.0,13.4,1505.2,327.7,-0.8,1.8,2470.551,13.29,0.022,241.2
2021-07-13T09:46:03,42.805,6.029,-0.015,-0.001,-0.006,101.0,101.0,101.0,13.3,1505.2,328.1,-0.7,1.8,2470.584,13.29,0.015,266.2
2021-07-13T09:49:03,42.805,6.029,-0.03,0.019,-0.017,103.0,100.0,100.0,13.4,1505.2,328.6,-0.8,1.8,2470.541,13.29,0.035,302.3
2021-07-13T09:52:03,42.805,6.029,-0.039,0.018,-0.013,100.0,101.0,100.0,13.3,1505.2,326.8,-0.8,1.8,2470.552,13.29,0.042,294.8
2021-07-13T09:55:03,42.805,6.029,-0.038,0.007,-0.022,100.0,101.0,100.0,13.4,1505.2,329.7,-0.8,1.9,2470.554,13.29,0.038,280.4